User: anonymous   Login
Location: Columbia
(38.9520°N, 92.3340°W)
Time: 06:32:39
(UTC-06:00)
Language:

Cosmos 158 Rocket - Orbit

View from above orbital plane
View from above orbital plane
View from above satellite
View from above satellite

Ground track
Ground track

The orbit data is extracted from the following two-line orbital elements,

1 02802U 67045B   16339.69635053 -.00000037  00000-0 -24035-5 0  9994
2 02802  74.0099 168.7376 0067747 269.9230  89.4164 14.43610257600914
Epoch (UTC): 04 December 2016 16:42:44
Eccentricity: 0.0067747
inclination: 74.0099°
perigee height: 698 km
apogee height: 795 km
right ascension of ascending node: 168.7376°
argument of perigee: 269.9230°
revolutions per day: 14.43610257
mean anomaly at epoch: 89.4164°
orbit number at epoch: 60091

The dashed part of the orbit path shows where the satellite is in the earth's shadow,  

DLR